Rbgn^[z[y[W
メイン
   新天体発見情報
     Comet C/2023 RS61
投稿するにはまず登録を

スレッド表示 | 新しいものから 前のトピック | 次のトピック | 下へ
投稿者 スレッド
佐藤裕久
投稿日時: 2025-5-1 21:56
モデレータ
登録日: 2005-6-12
居住地: 日本
投稿: 2686
オンライン
Comet C/2023 RS61

2023年9月15日、HaleakalaにあるPan-STARRS2 1.8-m Ritchey-Chretien反射望遠鏡で得た画像から
ケンタウルス型小惑星 2023 RS61が発見された (MPEC 2023-T108)。
それ以前の観測は、2015年9月5日 (Cerro Tololo 4-m反射望遠鏡によるDECam画像でV光度24.6等)、
2020年9月15日 (aleakalaのPan-STARRS1 1.8-m反射望遠鏡による画像でw光度22.1-22.9等)、
2021年9月5日と6日 (Maunakeaの8.2-m f/2.2 すばる望遠鏡による画像で22.5等、MPEC 2023-U271
で公開後に同定された。
R. Weryk (西オンタリオ大学,物理および天文学科)の書込みによると、ケンタウルス型小惑星 
2023 RS61の彗星活動について、E. Lillyらの報告[2025, * Research Notes AAS* 9(3),67]を
通して警告を受けたと書いた。彼は、2025年1月2日、4.3-m Lowell Discovery望遠鏡で得た7枚の
r'-バンドの画像では、コマとp.a.100-170°に5".9の広い扇状の尾が見えると報告した(3"の範囲
で全光度21.5等)。Werykは、2017年10月10日、1".0のシーイングで得た4枚の45-秒i-バンドPan-
STARRS1画像では、尾のない1".7(半値全幅:FWHM)の拡散したコマが見えるこの天体を同定した。

彗星機能の報告は次のとおり、

OC   Date        Reporter            Coma    Tail   PA   Comet     Date
                                                        (T/P)   Reported
F51  2017-10-10  R. Weryk            0".7                 T   2025-04-23.90
157  2024-11-02  R. Haver            6"                   P   2024-11-03.85
G37  2025-01-02  E. Lilly            1".2      6"  100    T   2025-01-02.96

発見位置は次のとおり(NEOCP P11KNiD)、

     2023 UT             R.A. (2000) Decl.       Mag.
     Sept.15.42559    1 20 42.39   +22 58 32.8   21.9
          15.43851    1 20 42.15   +22 58 32.8   21.8
          15.45130    1 20 41.99   +22 58 32.8   21.6
          15.46438    1 20 41.75   +22 58 32.8   21.7

同定された観測位置は次のとおり、

     2015 UT             R.A. (2000) Decl.       Mag.
     Sept. 5.07174   21 51 41.98   -22 13 00.5   24.6
           5.14618   21 51 40.93   -22 13 03.1
           5.21860   21 51 39.94   -22 13 05.5

     2020 UT             R.A. (2000) Decl.       Mag.
     Sept.15.39639   23 40 30.53   + 1 43 09.8   22.0
          15.42341   23 40 30.10   + 1 43 08.3   22.9
          15.43691   23 40 29.88   + 1 43 07.3   22.5

     2021 UT             R.A. (2000) Decl.       Mag.
     Sept. 5.60040    0 11 07.64   + 8 21 10.3   22.4
           6.60688    0 10 52.66   + 8 20 24.0   22.5

MPCの楕円軌道要素、位置推算表は次のとおり、

Orbital elements:
    C/2023 RS61                                                                 
Epoch 2025 May 5.0 TT = JDT 2460800.5                                           
T 2028 Nov. 30.92509 TT                                 Veres                   
q   7.9988110            (2000.0)            P               Q                  
n   0.02401255     Peri.  119.39350     -0.29428806     -0.95264029             
a  11.8990005      Node   347.01896     +0.71516093     -0.16632258             
e   0.3277745      Incl.   19.94439     +0.63398689     -0.25458453             
P  41.0                                                                         
From 67 observations 2015 Sept. 5-2024 Dec. 2, mean residual 0".3.              
                                                                                
Ephemeris:
Date    TT    R. A. (2000) Decl.     Delta      r    Elong.  Phase   m1
2025 03 25    02 06 37.7 +29 18 25   9.9432  9.1804    38.2     3.9  21.4
...
2025 04 09    02 14 29.4 +29 50 28  10.0389  9.1577    27.0     2.8  21.4
...
2025 04 17    02 18 53.1 +30 10 02  10.0700  9.1456    21.8     2.3  21.4
...
2025 04 23    02 22 14.6 +30 25 40  10.0839  9.1366    18.6     2.0  21.4
2025 04 24    02 22 48.5 +30 28 21  10.0854  9.1351    18.1     2.0  21.4
2025 04 25    02 23 22.4 +30 31 03  10.0867  9.1336    17.7     1.9  21.4
...
2025 05 01    02 26 46.6 +30 47 41  10.0896  9.1246    15.9     1.7  21.4
...
2025 05 09    02 31 20.0 +31 10 50  10.0804  9.1127    15.7     1.7  21.4
...
2025 05 24    02 39 48.8 +31 56 42  10.0238  9.0903    21.7     2.4  21.4

(MPEC 2025-H113、CBET 5539)

スレッド表示 | 新しいものから 前のトピック | 次のトピック | トップ

投稿するにはまず登録を
 
© 1999 Tsutomu Seki.